DW7589 Weather Reports


time (UTC)temp
F
wind
direction
speed
knots
gust
knots
rain 1hr
in
rain 24hr
in
rain mn
in
humidity
%
barometer
mb
20260902104242 77 0 0.0 0.9 0.00 0.00 0.00 79 1014.7
20260902103742 77 0 0.0 0.0 0.00 0.00 0.00 79 1014.7
20260902103242 77 0 0.0 0.9 0.00 0.00 0.00 79 1014.7
20260902102742 77 0 0.0 0.9 0.00 0.00 0.00 79 1014.7
20260902102242 77 0 0.0 1.7 0.00 0.00 0.00 79 1014.7
20260902101742 77 0 0.0 1.7 0.00 0.00 0.00 79 1014.6
20260902101242 77 0 0.0 1.7 0.00 0.00 0.00 78 1014.6
20260902100743 77 0 0.0 0.0 0.00 0.00 0.00 78 1014.5
20260902100242 77 0 0.0 0.0 0.00 0.00 0.00 77 1014.4
20260902095742 78 0 0.0 0.0 0.00 0.00 0.00 77 1014.5
20260902095243 78 0 0.0 0.0 0.00 0.00 0.00 76 1014.5
20260902094242 78 0 0.0 0.0 0.00 0.00 0.00 76 1014.5
20260902093742 79 0 0.0 0.0 0.00 0.00 0.00 75 1014.5
20260902093244 79 0 0.0 0.0 0.00 0.00 0.00 74 1014.5
20260902092243 80 0 0.0 0.9 0.00 0.00 0.00 73 1014.5
20260902091742 80 0 0.0 0.9 0.00 0.00 0.00 73 1014.6
20260902091242 80 0 0.0 0.9 0.00 0.00 0.00 72 1014.6
20260902090742 80 0 0.0 0.9 0.00 0.00 0.00 72 1014.6
20260902090243 80 0 0.0 0.9 0.00 0.00 0.00 72 1014.6
20260902085742 80 0 0.0 1.7 0.00 0.00 0.00 72 1014.5
20260902085243 80 0 0.0 1.7 0.00 0.00 0.00 71 1014.6
20260902084742 80 0 0.0 0.9 0.00 0.00 0.00 71 1014.5
20260902083742 81 0 0.0 0.9 0.00 0.00 0.00 71 1014.6
20260902083243 81 0 0.0 0.9 0.00 0.00 0.00 71 1014.6
20260902082743 81 0 0.0 0.9 0.00 0.00 0.00 71 1014.6
20260902082242 81 0 0.0 0.9 0.00 0.00 0.00 70 1014.6
20260902081742 81 0 0.0 1.7 0.00 0.00 0.00 70 1014.7
20260902081243 81 0 0.0 1.7 0.00 0.00 0.00 70 1014.7
20260902080742 81 0 0.0 0.9 0.00 0.00 0.00 70 1014.7
20260902075243 81 0 0.0 0.0 0.00 0.00 0.00 70 1014.8
20260902074742 81 0 0.0 0.9 0.00 0.00 0.00 69 1014.8
20260902074243 81 0 0.0 0.9 0.00 0.00 0.00 69 1014.9
20260902073742 81 0 0.0 0.9 0.00 0.00 0.00 69 1014.9
20260902072742 81 0 0.0 0.9 0.00 0.00 0.00 69 1015.0
20260902072242 81 0 0.0 0.9 0.00 0.00 0.00 69 1015.0
20260902071742 82 0 0.0 0.9 0.00 0.00 0.00 68 1015.0
20260902071243 82 0 0.0 0.9 0.00 0.00 0.00 68 1015.0
20260902070743 82 0 0.0 1.7 0.00 0.00 0.00 68 1015.0
20260902070244 82 164 0.9 1.7 0.00 0.00 0.00 68 1015.0
20260902065743 82 164 0.9 1.7 0.00 0.00 0.00 68 1015.1
20260902064743 82 0 0.0 1.7 0.00 0.00 0.00 67 1015.0
20260902064242 82 0 0.0 1.7 0.00 0.00 0.00 67 1015.1
20260902063742 82 0 0.0 0.9 0.00 0.00 0.00 67 1015.1
20260902063242 82 0 0.0 0.9 0.00 0.00 0.00 67 1015.1
20260902062744 82 0 0.0 0.9 0.00 0.00 0.00 67 1015.1
20260902062243 82 0 0.0 0.9 0.00 0.00 0.00 67 1015.1
20260902061742 82 0 0.0 0.9 0.00 0.00 0.00 67 1015.1
20260902061243 83 0 0.0 0.9 0.00 0.00 0.00 66 1015.1
20260902060743 83 0 0.0 0.9 0.00 0.00 0.00 66 1015.1
20260902060243 83 164 0.9 1.7 0.00 0.00 0.00 65 1015.1
20260902054742 84 157 0.9 1.7 0.00 0.00 0.00 64 1014.9
20260902053742 84 170 0.9 3.5 0.00 0.00 0.00 64 1014.8
20260902053242 84 167 0.9 2.6 0.00 0.00 0.00 64 1014.8
20260902052242 84 156 0.9 2.6 0.00 0.00 0.00 64 1014.7
20260902051743 84 162 0.9 1.7 0.00 0.00 0.00 64 1014.7
20260902050742 84 153 0.9 3.5 0.00 0.00 0.00 65 1014.9
20260902050243 84 154 0.9 3.5 0.00 0.00 0.00 65 1014.8
20260902045743 84 153 1.7 4.3 0.00 0.00 0.00 64 1014.8
20260902045242 85 153 2.6 4.3 0.00 0.00 0.00 64 1014.7
20260902044742 85 154 1.7 4.3 0.00 0.00 0.00 64 1014.7
20260902042743 85 145 1.7 3.5 0.00 0.00 0.00 63 1014.7
20260902041743 86 150 1.7 4.3 0.00 0.00 0.00 62 1014.7
20260902040742 86 150 2.6 6.1 0.00 0.00 0.00 61 1014.5
20260902040243 86 152 2.6 6.1 0.00 0.00 0.00 60 1014.5
20260902035743 86 153 2.6 5.2 0.00 0.00 0.00 60 1014.5
20260902035243 87 150 2.6 6.1 0.00 0.00 0.00 60 1014.6
20260902034743 87 151 3.5 6.1 0.00 0.00 0.00 59 1014.5
20260902034243 87 153 3.5 7.0 0.00 0.00 0.00 58 1014.4
20260902033743 88 150 3.5 7.0 0.00 0.00 0.00 57 1014.3
20260902032742 88 139 2.6 4.3 0.00 0.00 0.00 56 1014.2
20260902032242 88 144 2.6 4.3 0.00 0.00 0.00 55 1014.2
20260902031742 89 149 2.6 5.2 0.00 0.00 0.00 55 1014.1
20260902031242 89 144 2.6 5.2 0.00 0.00 0.00 54 1013.9
20260902030243 88 131 1.7 2.6 0.00 0.00 0.00 53 1013.7
20260902025742 88 113 0.9 2.6 0.00 0.00 0.00 53 1013.6
20260902025242 88 102 0.9 1.7 0.00 0.00 0.00 53 1013.4
20260902024743 87 100 0.9 0.9 0.00 0.00 0.00 54 1013.5
20260902024243 87 0 0.0 0.9 0.00 0.00 0.00 54 1013.4
20260902023742 87 0 0.0 0.9 0.00 0.00 0.00 54 1013.3
20260902022743 88 0 0.0 0.0 0.00 0.00 0.00 53 1013.1
20260902022244 88 0 0.0 0.0 0.00 0.00 0.00 53 1013.0
20260902021742 88 0 0.0 0.0 0.00 0.00 0.00 52 1012.9
20260902021243 89 0 0.0 0.0 0.00 0.00 0.00 52 1012.9
20260902020243 89 0 0.0 0.0 0.00 0.00 0.00 51 1012.7
20260902015742 90 0 0.0 0.9 0.00 0.00 0.00 51 1012.7
20260902015243 90 0 0.0 0.9 0.00 0.00 0.00 50 1012.6
20260902014743 90 0 0.0 0.9 0.00 0.00 0.00 49 1012.6
20260902014243 91 0 0.0 0.9 0.00 0.00 0.00 49 1012.5
20260902013744 91 0 0.0 1.7 0.00 0.00 0.00 49 1012.4
20260902013243 91 0 0.0 1.7 0.00 0.00 0.00 48 1012.4
20260902012743 92 0 0.0 0.0 0.00 0.00 0.00 48 1012.3
20260902012243 92 0 0.0 0.0 0.00 0.00 0.00 47 1012.4
20260902011743 92 0 0.0 0.9 0.00 0.00 0.00 47 1012.3
20260902011242 93 0 0.0 1.7 0.00 0.00 0.00 46 1012.3
20260902010743 93 0 0.0 1.7 0.00 0.00 0.00 46 1012.3
20260902010242 93 0 0.0 1.7 0.00 0.00 0.00 45 1012.2
20260902005743 94 130 0.9 1.7 0.00 0.00 0.00 44 1012.2
20260902005243 94 137 0.9 1.7 0.00 0.00 0.00 44 1012.2
20260902004744 94 139 0.9 1.7 0.00 0.00 0.00 43 1012.2
20260902003743 95 132 0.9 1.7 0.00 0.00 0.00 43 1012.1
20260902003243 95 129 0.9 2.6 0.00 0.00 0.00 42 1012.1
20260902002743 95 128 0.9 2.6 0.00 0.00 0.00 42 1012.2
20260902002242 96 120 0.9 3.5 0.00 0.00 0.00 42 1012.1
20260902001743 96 123 0.9 3.5 0.00 0.00 0.00 42 1012.2
20260902001243 96 131 0.9 3.5 0.00 0.00 0.00 42 1012.2
20260902000744 96 136 1.7 5.2 0.00 0.00 0.00 41 1012.3
20260901235743 97 138 1.7 5.2 0.00 0.00 0.00 40 1012.3
20260901235243 97 142 1.7 5.2 0.00 0.00 0.00 40 1012.3
20260901234743 97 140 2.6 4.3 0.00 0.00 0.00 40 1012.4
20260901234243 97 140 2.6 6.1 0.00 0.00 0.00 40 1012.4
20260901233743 97 141 2.6 6.1 0.00 0.00 0.00 40 1012.4
20260901233243 98 139 1.7 5.2 0.00 0.00 0.00 39 1012.4
20260901232743 98 129 1.7 4.3 0.00 0.00 0.00 39 1012.5
20260901231243 97 132 2.6 5.2 0.00 0.00 0.00 38 1012.5
20260901230743 97 133 2.6 4.3 0.00 0.00 0.00 38 1012.5
20260901230243 98 136 1.7 3.5 0.00 0.00 0.00 39 1012.5
20260901225743 98 141 1.7 4.3 0.00 0.00 0.00 38 1012.4
20260901223743 99 132 2.6 4.3 0.00 0.00 0.00 37 1012.6
20260901223243 99 122 1.7 5.2 0.00 0.00 0.00 36 1012.6
20260901221744 98 106 0.9 4.3 0.00 0.00 0.00 39 1012.5
20260901220744 98 120 1.7 4.3 0.00 0.00 0.00 39 1012.6
20260901215744 98 142 2.6 5.2 0.00 0.00 0.00 40 1012.7
20260901215243 98 143 2.6 5.2 0.00 0.00 0.00 39 1012.8
20260901214743 98 138 2.6 4.3 0.00 0.00 0.00 39 1012.7
20260901213743 98 126 2.6 6.1 0.00 0.00 0.00 39 1012.8
20260901213244 99 135 3.5 7.0 0.00 0.00 0.00 39 1012.8
20260901212744 99 142 3.5 7.8 0.00 0.00 0.00 39 1012.7
20260901212244 100 142 2.6 7.8 0.00 0.00 0.00 38 1012.8
20260901211743 101 154 1.7 6.1 0.00 0.00 0.00 37 1012.9
20260901211243 101 158 2.6 6.1 0.00 0.00 0.00 36 1013.1
20260901210742 101 148 2.6 7.8 0.00 0.00 0.00 37 1013.1
20260901210242 101 146 2.6 7.8 0.00 0.00 0.00 37 1013.2
20260901205243 100 155 2.6 7.0 0.00 0.00 0.00 38 1013.2
20260901204743 101 170 1.7 7.0 0.00 0.00 0.00 37 1013.3
20260901204243 100 194 0.9 3.5 0.00 0.00 0.00 39 1013.3
20260901203745 100 189 1.7 7.0 0.00 0.00 0.00 38 1013.4
20260901203243 100 170 2.6 7.0 0.00 0.00 0.00 38 1013.5
20260901202245 99 178 1.7 4.3 0.00 0.00 0.00 39 1013.5
20260901201744 99 166 2.6 7.0 0.00 0.00 0.00 39 1013.6
20260901201242 99 164 2.6 7.0 0.00 0.00 0.00 40 1013.7
20260901200743 99 168 2.6 4.3 0.00 0.00 0.00 40 1013.7
20260901195743 99 160 1.7 7.0 0.00 0.00 0.00 39 1013.9
20260901195244 99 147 1.7 5.2 0.00 0.00 0.00 39 1013.9
20260901194743 99 139 2.6 4.3 0.00 0.00 0.00 40 1014.0
20260901194243 98 141 2.6 7.0 0.00 0.00 0.00 40 1014.1
20260901193744 98 157 2.6 7.0 0.00 0.00 0.00 41 1014.2
20260901193245 98 170 1.7 6.1 0.00 0.00 0.00 41 1014.1
20260901192743 98 162 2.6 6.1 0.00 0.00 0.00 40 1014.3
20260901191744 98 164 1.7 6.1 0.00 0.00 0.00 41 1014.3
20260901191243 98 164 2.6 6.1 0.00 0.00 0.00 41 1014.5
20260901190243 98 155 2.6 7.0 0.00 0.00 0.00 41 1014.6
20260901185744 97 161 1.7 6.1 0.00 0.00 0.00 42 1014.7
20260901185243 97 154 1.7 6.1 0.00 0.00 0.00 42 1014.8
20260901184743 98 153 2.6 7.0 0.00 0.00 0.00 42 1014.8
20260901182244 96 158 2.6 7.0 0.00 0.00 0.00 44 1015.4
20260901181743 96 168 2.6 7.0 0.00 0.00 0.00 44 1015.5
20260901180744 96 152 2.6 7.0 0.00 0.00 0.00 44 1015.6
20260901180244 96 166 2.6 6.1 0.00 0.00 0.00 45 1015.8
20260901175744 96 169 2.6 5.2 0.00 0.00 0.00 46 1015.9
20260901175243 96 183 2.6 5.2 0.00 0.00 0.00 45 1016.0
20260901174743 96 179 2.6 4.3 0.00 0.00 0.00 46 1016.0
20260901174243 96 149 1.7 7.0 0.00 0.00 0.00 45 1016.1
20260901173743 96 165 1.7 7.0 0.00 0.00 0.00 46 1016.2
20260901173243 96 152 1.7 4.3 0.00 0.00 0.00 45 1016.2
20260901172743 96 128 2.6 6.1 0.00 0.00 0.00 45 1016.4
20260901172244 96 130 2.6 6.1 0.00 0.00 0.00 45 1016.4
20260901171743 96 126 1.7 5.2 0.00 0.00 0.00 46 1016.4
20260901171244 95 124 2.6 5.2 0.00 0.00 0.00 46 1016.4
20260901170743 95 126 2.6 6.1 0.00 0.00 0.00 45 1016.4
20260901170243 95 135 1.7 6.1 0.00 0.00 0.00 47 1016.5
20260901165743 95 147 1.7 4.3 0.00 0.00 0.00 48 1016.5
20260901165244 95 137 1.7 4.3 0.00 0.00 0.00 48 1016.5
20260901164744 94 137 2.6 5.2 0.00 0.00 0.00 48 1016.5
20260901164244 94 141 2.6 5.2 0.00 0.00 0.00 50 1016.6
20260901163744 94 127 2.6 5.2 0.00 0.00 0.00 49 1016.7
20260901163244 94 121 1.7 5.2 0.00 0.00 0.00 50 1016.8
20260901162745 94 136 1.7 5.2 0.00 0.00 0.00 50 1016.8
20260901162243 93 160 1.7 5.2 0.00 0.00 0.00 51 1016.9
20260901161745 93 205 1.7 5.2 0.00 0.00 0.00 50 1016.9
20260901161244 93 230 1.7 4.3 0.00 0.00 0.00 51 1016.9
20260901160743 93 183 1.7 4.3 0.00 0.00 0.00 51 1016.9
20260901160243 93 147 1.7 4.3 0.00 0.00 0.00 52 1016.9
20260901155744 92 141 1.7 5.2 0.00 0.00 0.00 52 1016.9
20260901154743 92 158 1.7 4.3 0.00 0.00 0.00 52 1017.0
20260901154245 92 152 1.7 6.1 0.00 0.00 0.00 53 1017.0
20260901153744 92 150 1.7 6.1 0.00 0.00 0.00 53 1017.0
20260901152744 92 151 0.9 3.5 0.00 0.00 0.00 53 1017.0
20260901152243 91 167 0.9 3.5 0.00 0.00 0.00 54 1017.0
20260901151243 91 182 1.7 5.2 0.00 0.00 0.00 56 1017.1
20260901150743 90 164 1.7 3.5 0.00 0.00 0.00 56 1017.1
20260901150244 90 197 0.9 3.5 0.00 0.00 0.00 55 1017.1
20260901145743 90 187 0.9 2.6 0.00 0.00 0.00 56 1017.2
20260901145243 90 166 0.9 3.5 0.00 0.00 0.00 58 1017.2
20260901144743 89 186 0.9 3.5 0.00 0.00 0.00 57 1017.1
20260901143745 88 159 0.9 2.6 0.00 0.00 0.00 60 1017.1
20260901142743 87 222 0.9 2.6 0.00 0.00 0.00 62 1017.1
20260901142245 86 209 0.9 2.6 0.00 0.00 0.00 62 1017.1
20260901141744 86 202 0.9 1.7 0.00 0.00 0.00 63 1017.1
20260901141245 86 231 0.9 2.6 0.00 0.00 0.00 65 1017.2
20260901140744 85 239 0.9 2.6 0.00 0.00 0.00 66 1017.1
20260901140245 84 203 0.9 2.6 0.00 0.00 0.00 71 1017.2
20260901135743 84 186 0.9 2.6 0.00 0.00 0.00 71 1017.1
20260901135245 83 0 0.0 1.7 0.00 0.00 0.00 73 1017.1
20260901134743 83 0 0.0 1.7 0.00 0.00 0.00 74 1017.1
20260901133744 82 141 0.9 2.6 0.00 0.00 0.00 77 1017.1
20260901133244 81 129 1.7 2.6 0.00 0.00 0.00 79 1017.1
20260901132744 81 130 1.7 2.6 0.00 0.00 0.00 79 1017.1
20260901132243 80 139 0.9 2.6 0.00 0.00 0.00 80 1017.1
20260901131743 80 141 0.9 1.7 0.00 0.00 0.00 80 1017.1
20260901131244 80 142 0.9 1.7 0.00 0.00 0.00 81 1017.0
20260901130744 79 0 0.0 1.7 0.00 0.00 0.00 82 1017.0
20260901130243 79 0 0.0 1.7 0.00 0.00 0.00 82 1016.9
20260901125744 78 135 0.9 1.7 0.00 0.00 0.00 82 1016.9
20260901125245 78 143 0.9 1.7 0.00 0.00 0.00 82 1016.8
20260901124745 78 157 0.9 1.7 0.00 0.00 0.00 82 1016.7
20260901124244 78 0 0.0 1.7 0.00 0.00 0.00 83 1016.6
20260901123745 78 0 0.0 0.9 0.00 0.00 0.00 83 1016.5
20260901123243 78 0 0.0 0.9 0.00 0.00 0.00 84 1016.5
20260901122745 77 0 0.0 0.9 0.00 0.00 0.00 84 1016.5
20260901122244 77 0 0.0 0.9 0.00 0.00 0.00 84 1016.4
20260901121744 77 0 0.0 0.0 0.00 0.00 0.00 84 1016.3
20260901121243 77 0 0.0 0.9 0.00 0.00 0.00 85 1016.2
20260901120744 77 0 0.0 0.9 0.00 0.00 0.00 85 1016.3
20260901120244 76 0 0.0 0.9 0.00 0.00 0.00 86 1016.3
20260901115244 76 0 0.0 0.0 0.00 0.00 0.00 85 1016.3
20260901114744 76 0 0.0 0.0 0.00 0.00 0.00 85 1016.3
20260901114243 76 0 0.0 0.9 0.00 0.00 0.00 85 1016.2
20260901113744 76 0 0.0 0.9 0.00 0.00 0.00 85 1016.2
20260901113243 76 0 0.0 0.9 0.00 0.00 0.00 85 1016.2
20260901112743 76 0 0.0 0.0 0.00 0.00 0.00 84 1016.2
20260901112243 76 0 0.0 0.0 0.00 0.00 0.00 84 1016.2
20260901111743 77 0 0.0 0.0 0.00 0.00 0.00 83 1016.1
20260901111244 77 0 0.0 0.0 0.00 0.00 0.00 82 1016.1
20260901110745 77 0 0.0 0.0 0.00 0.00 0.00 82 1016.1
20260901110244 77 0 0.0 0.0 0.00 0.00 0.00 82 1016.0
20260901105744 78 0 0.0 0.0 0.00 0.00 0.00 81 1016.0
20260901105244 78 0 0.0 0.0 0.00 0.00 0.00 80 1016.1